Valparaiso, IN

4:13 AM CDT on May 24, 2017 (GMT -0500)
Porter County Municipal

Weather History for KVPZ - September, 2012

Change the Weather History Date:

Tuesday, September 4, 2012

  Actual Average Record
Temperature  
Mean Temperature 78 °F 68 °F  
Max Temperature 87 °F 78 °F 93 °F (1999)
Min Temperature 68 °F 57 °F 49 °F (2005)
Degree Days  
Heating Degree Days 0 1  
Month to date heating degree days 0 4  
Since 1 July heating degree days 6 21  
Cooling Degree Days 13 4  
Month to date cooling degree days 48 16  
Year to date cooling degree days 1021 652  
Growing Degree Days 28 (Base 50)    
Moisture  
Dew Point 69 °F    
Average Humidity 80    
Maximum Humidity 94    
Minimum Humidity 57    
Precipitation  
Precipitation 0.01 in 0.12 in 2.29 in (2008)
Month to date precipitation 0.95 0.54  
Year to date precipitation 19.74 26.08  
Sea Level Pressure  
Sea Level Pressure 29.87 in    
Wind  
Wind Speed 5 mph (NE)    
Max Wind Speed 21 mph    
Max Gust Speed 32 mph    
Visibility 9 miles    
Events      
T = Trace of Precipitation, MM = Missing Value Source: NWS Daily Summary

Daily Weather History Graph

Daily Weather History Graph

Search for Another Location

Airport or City:

Trip Planner

Search our weather history database for the weather conditions in past years. The results will help you decide how hot, cold, wet, or windy it might be!

Date:

Astronomy

Sep. 04, 2012 Rise Set
Actual Time 6:17 AM CDT 7:15 PM CDT
Civil Twilight 5:49 AM CDT 7:43 PM CDT
Nautical Twilight 5:15 AM CDT 8:16 PM CDT
Astronomical Twilight 4:40 AM CDT 8:51 PM CDT
Moon 9:03 PM CDT (9/4) 10:27 AM CDT (9/4)
Length of Visible Light 13h 53m
Length of Day
12h 57m
Waning Gibbous, 83% of the Moon is Illuminated
Sep 4
Waning Gibbous
Sep 8
Last Quarter
Sep 15
New
Sep 22
First Quarter
Sep 29
Full

Hourly Weather History & Observations

Time (CDT) Temp. Heat Index Dew Point Humidity Pressure Visibility Wind Dir Wind Speed Gust Speed Precip Events Conditions
12:53 AM 70.0 °F - 68.0 °F 93% 29.87 in 8.0 mi Calm Calm - N/A   Clear
1:53 AM 70.0 °F - 68.0 °F 93% 29.87 in 7.0 mi Calm Calm - N/A   Clear
2:53 AM 70.0 °F - 66.9 °F 90% 29.86 in 5.0 mi Calm Calm - N/A   Clear
3:53 AM 69.1 °F - 66.9 °F 93% 29.88 in 4.0 mi Calm Calm - N/A   Clear
4:53 AM 72.0 °F - 68.0 °F 87% 29.88 in 7.0 mi North 3.5 mph - N/A   Mostly Cloudy
5:28 AM 71.6 °F - 69.8 °F 94% 29.91 in 6.0 mi North 3.5 mph - N/A   Overcast
5:53 AM 73.0 °F - 70.0 °F 90% 29.91 in 6.0 mi North 6.9 mph - N/A   Overcast
6:14 AM 71.6 °F - 68.0 °F 88% 29.92 in 10.0 mi Variable 5.8 mph - N/A   Scattered Clouds
6:53 AM 72.0 °F - 68.0 °F 87% 29.92 in 10.0 mi NNE 6.9 mph - N/A   Mostly Cloudy
7:53 AM 72.0 °F - 69.1 °F 91% 29.90 in 10.0 mi ENE 3.5 mph - 0.00 in   Mostly Cloudy
8:53 AM 73.0 °F - 69.1 °F 87% 29.88 in 10.0 mi SSW 4.6 mph - N/A   Clear
9:53 AM 78.1 °F - 71.1 °F 79% 29.89 in 10.0 mi SSW 4.6 mph - N/A   Clear
10:53 AM 80.1 °F 83.6 °F 71.1 °F 74% 29.89 in 10.0 mi WSW 6.9 mph - N/A   Clear
11:53 AM 82.9 °F 87.5 °F 71.1 °F 67% 29.88 in 10.0 mi West 6.9 mph - N/A   Clear
12:53 PM 84.0 °F 89.6 °F 72.0 °F 67% 29.88 in 10.0 mi NNE 5.8 mph - N/A   Scattered Clouds
1:53 PM 84.0 °F 88.4 °F 70.0 °F 63% 29.87 in 10.0 mi NNE 6.9 mph - N/A   Clear
2:53 PM 87.1 °F 92.8 °F 71.1 °F 59% 29.85 in 10.0 mi Variable 4.6 mph - N/A   Clear
3:53 PM 86.0 °F 90.1 °F 69.1 °F 57% 29.85 in 10.0 mi NNE 4.6 mph - N/A   Clear
4:53 PM 86.0 °F 90.1 °F 69.1 °F 57% 29.85 in 10.0 mi NE 4.6 mph - N/A   Clear
5:53 PM 82.9 °F 85.8 °F 68.0 °F 60% 29.85 in 10.0 mi ENE 4.6 mph - N/A   Clear
6:53 PM 79.0 °F - 69.1 °F 72% 29.84 in 10.0 mi Calm Calm - N/A   Clear
7:53 PM 73.9 °F - 69.1 °F 85% 29.85 in 10.0 mi East 3.5 mph - N/A   Clear
8:53 PM 72.0 °F - 68.0 °F 87% 29.86 in 10.0 mi East 3.5 mph - N/A   Clear
9:53 PM 71.1 °F - 66.9 °F 87% 29.85 in 10.0 mi East 3.5 mph - N/A   Clear
10:53 PM 70.0 °F - 66.9 °F 90% 29.86 in 10.0 mi ESE 3.5 mph - N/A   Clear
11:53 PM 69.1 °F - 66.9 °F 93% 29.87 in 10.0 mi Calm Calm - N/A   Clear